Regional Weather Roundup
Issued by NWS

Home | Current Version | Previous Version | Graphics & Text | Print | Product List | Glossary On
Versions: 1 2 3 4 5 6 7 8 9 10 11 12 13 14 15 16 17 18 19 20 21 22 23 24 25 26 27 28 29 30 31 32 33 34 35 36 37 38 39 40 41 42 43 44 45 46 47 48 49 50
030
ASUS43 KOAX 281210
RWRNE

WEATHER ROUNDUP FOR NEBRASKA
NATIONAL WEATHER SERVICE OMAHA NE
700 AM CDT SAT MAY 28 2016

NOTES: SATELLITE DATA IS BEING USED TO AUGMENT CLOUD COVER ABOVE
       12000 FEET.
       "FAIR" INDICATES FEW OR NO CLOUDS BELOW 12,000 FEET WITH NO
       SIGNIFICANT WEATHER AND/OR OBSTRUCTIONS TO VISIBILITY.

  * THESE STATIONS DO NOT REPORT WEATHER SUCH AS RAIN...SNOW OR FOG.

NEZ001>004-019>022-054>056-281300-
NEBRASKA PANHANDLE

CITY           SKY/WX    TMP DP  RH WIND       PRES   REMARKS
SCOTTSBLUFF    CLEAR     41  39  93 NW8       29.93R
6HR MIN TEMP:  37; 6HR MAX TEMP:  48;

ALLIANCE       MOCLDY    36  36 100 SW3       29.91S
6HR MIN TEMP:  35; 6HR MAX TEMP:  45;

CHADRON        CLEAR     38  37  97 CALM      29.90R
6HR MIN TEMP:  36; 6HR MAX TEMP:  48;

KIMBALL        CLEAR     39  38  97 W5        29.95R
SIDNEY         CLEAR     41  39  93 NW10      29.94R
6HR MIN TEMP:  38; 6HR MAX TEMP:  45;

$$

NEZ057>060-069>072-079>082-281300-
SOUTHWEST NEBRASKA

CITY           SKY/WX    TMP DP  RH WIND       PRES   REMARKS
NORTH PLATTE   MOCLDY    50  48  93 NW5       29.87R
6HR MIN TEMP:  49; 6HR MAX TEMP:  57;

IMPERIAL       CLEAR     50  45  83 NW9       29.90R
6HR MIN TEMP:  48; 6HR MAX TEMP:  53;

LEXINGTON      CLOUDY    56  53  92 NW8       29.83S
MCCOOK         CLEAR     51  50  96 W7        29.86R
6HR MIN TEMP:  51; 6HR MAX TEMP:  57; 6HR PCP:  0.55;

OGALLALA       CLEAR     47  45  91 SW6       29.91R
$$

NEZ005>010-023>029-035>040-094-281300-
NORTH CENTRAL NEBRASKA

CITY           SKY/WX    TMP DP  RH WIND       PRES   REMARKS
VALENTINE      CLOUDY    53  49  86 NW10      29.84R
6HR MIN TEMP:  52; 6HR MAX TEMP:  54;

AINSWORTH      CLOUDY    56  53  89 NW7       29.83R
BROKEN BOW     CLOUDY    56  53  90 CALM      29.82R
6HR MIN TEMP:  55; 6HR MAX TEMP:  56; 6HR PCP:  0.24;

O`NEILL        RAIN      57  56  95 W10       29.78R
ORD            LGT RAIN  56  54  93 W9        29.78R
6HR MIN TEMP:  56; 6HR MAX TEMP:  58; 6HR PCP:  0.43;

THEDFORD       CLOUDY    51  49  93 W8        29.86S
$$

NEZ041-046>049-061>064-073>077-083>087-281300-
SOUTH CENTRAL NEBRASKA

CITY           SKY/WX    TMP DP  RH WIND       PRES   REMARKS
GRAND ISLAND   LGT RAIN  56  54  93 NW10      29.80R
6HR MIN TEMP:  54; 6HR MAX TEMP:  57; 6HR PCP: TRACE;

AURORA         MOCLDY    56  55  98 NW10      29.78R
HASTINGS       CLOUDY    57  54  89 NW8       29.80R
6HR MIN TEMP:  55; 6HR MAX TEMP:  58;

HEBRON         PTCLDY    56  56  97 CALM      29.78R
HOLDREGE       CLOUDY    55  54  94 NW7       29.83R
KEARNEY *      CLOUDY    55  52  88 NW8       29.82R
YORK           CLOUDY    57  55  94 NW3       29.77R
$$

NEZ011>018-030>034-042>045-281300-
NORTHEAST NEBRASKA

CITY           SKY/WX    TMP DP  RH WIND       PRES   REMARKS
NORFOLK        CLOUDY    58  56  93 W13       29.69S
6HR MIN TEMP:  58; 6HR MAX TEMP:  60; 6HR PCP:  0.12;

ALBION         DRIZZLE   57  55  93 W7        29.75R
BLAIR          CLOUDY    60  58  94 S7        29.74S
FREMONT        CLOUDY    60  57  92 S6        29.74S
TEKAMAH        CLOUDY    61  58  90 SW8       29.73S
6HR MIN TEMP:  61; 6HR MAX TEMP:  63; 6HR PCP: TRACE;

WAYNE          CLOUDY    60  58  93 S9        29.72R
$$

NEZ050>053-065>068-078-088>093-281300-
SOUTHEAST NEBRASKA

CITY           SKY/WX    TMP DP  RH WIND       PRES   REMARKS
LINCOLN        CLOUDY    57  55  93 S5        29.76R
6HR MIN TEMP:  56; 6HR MAX TEMP:  60;

OMAHA EPPLEY   PTSUNNY   62  58  86 S10       29.74S
6HR MIN TEMP:  62; 6HR MAX TEMP:  63;

BEATRICE       CLOUDY    59  57  94 CALM      29.76S
FALLS CITY     CLOUDY    60  59  96 SE3       29.74F
6HR MIN TEMP:  58; 6HR MAX TEMP:  61; 6HR PCP:  0.02;

NEBRASKA CITY  CLOUDY    60  60 100 S6        29.77R
PLATTSMOUTH    CLOUDY    62  60  94 S7        29.76R
$$

NEZ044-045-051>053-067-281300-
OMAHA AREA

CITY           SKY/WX    TMP DP  RH WIND       PRES   REMARKS
OMAHA EPPLEY   PTSUNNY   62  58  86 S10       29.74S
6HR MIN TEMP:  62; 6HR MAX TEMP:  63;

BLAIR          CLOUDY    60  58  94 S7        29.74S
FREMONT        CLOUDY    60  57  92 S6        29.74S
MILLARD        CLOUDY    62  59  90 SW3       29.74S
OFFUTT AFB     CLOUDY    61  60  95 S7        29.75R
PLATTSMOUTH    CLOUDY    62  60  94 S7        29.76R
WAHOO          FAIR      59  57  92 SW3       29.75R
$$




USA.gov is the U.S. government's official web portal to all federal, state and local government web resources and services.